Content
SEND FEEDBACK

Daily
Averages
Monthly
Summary
United States of America

BEDFORD PARK, ILLINOIS


Home > North America > United States > Illinois
Elevation: 623 feet     Latitude: 41 46N     Longitude: 087 45W

WEATHER
 
SELECT A DAY
Number of Records: 192,293;   Date Range: 1/1/95 - 10/20/14
 
SHARE

PRINT THIS DATA

[ ← Previous Day ]
WEATHER ALMANAC - APRIL 30, 2013
[ Next Day → ]
[ °C ]   °F
Weather ElementAverageHighLow
Temperature72.7 °F84.9 °F (3:51 pm)61 °F (5:51 am)
Dewpoint53.8 °F57 °F (8:51 pm)50 °F (1:51 am)
Humidity53.2 %70 % (5:51 am)33 % (4:51 pm)
Barometer29.83 in29.93 in (11:51 pm)29.78 in (2:51 am)
Wind Speed14.8 mph19.6 mph (3:51 pm)
Wind Gust29.9 mph (11:51 am)
Weather ElementAverage
Visibility10 mi
Wind DirectionSSW (189.1 °)

Weather ElementTotal
Precipitation---
Cooling Degree Days8 (Base 65)
Growing Degree Days23 (Base 50)
Averaged from 23 records on April 30, 2013
WEATHER CONDITIONS BREAKOUT
WIND DIRECTION BREAKOUT
WEATHER BY HOUR - APRIL 30, 2013
[ °C ]   °F
Local TimeTemperatureDewpointHumidityBarometerVisibilityWind DirectionWind SpeedGust SpeedPrecipitationEventsConditions
1:51 AM63.0 °F50.0 °F63 %29.79 in10.0 miSouth (180°)13.8 mph23.0 mphMostly Cloudy
2:51 AM63.0 °F50.0 °F63 %29.78 in10.0 miSouth (180°)17.3 mph25.3 mphScattered Clouds
3:51 AM63.0 °F51.1 °F65 %29.80 in10.0 miSouth (190°)15.0 mph24.2 mphScattered Clouds
4:51 AM62.1 °F51.1 °F67 %29.81 in10.0 miSouth (190°)12.7 mph20.7 mphMostly Cloudy
5:51 AM61.0 °F51.1 °F70 %29.81 in10.0 miSouth (180°)11.5 mph21.9 mphMostly Cloudy
6:51 AM61.0 °F51.1 °F70 %29.82 in10.0 miSouth (190°)13.8 mph21.9 mphOvercast
7:51 AM63.0 °F52.0 °F67 %29.83 in10.0 miSouth (190°)15.0 mph23.0 mphMostly Cloudy
8:51 AM64.0 °F53.1 °F67 %29.83 in10.0 miSouth (190°)15.0 mph21.9 mphOvercast
9:51 AM66.0 °F54.0 °F65 %29.82 in10.0 miSouth (190°)15.0 mph27.6 mphMostly Cloudy
10:51 AM70.0 °F55.0 °F59 %29.83 in10.0 miSSW (200°)15.0 mph23.0 mphMostly Cloudy
11:51 AM75.0 °F55.0 °F50 %29.83 in10.0 miSouth (190°)16.1 mph29.9 mphMostly Cloudy
12:51 PM78.8 °F55.4 °F44 %29.84 in10.0 miSouth (190°)15.0 mph23.0 mphScattered Clouds
1:51 PM82.0 °F55.9 °F41 %29.81 in10.0 miSouth (180°)17.3 mph29.9 mphScattered Clouds
2:51 PM84.0 °F55.9 °F38 %29.81 in10.0 miSouth (190°)15.0 mph27.6 mphScattered Clouds
3:51 PM84.9 °F54.0 °F34 %29.79 in10.0 miSSW (210°)19.6 mph27.6 mphMostly Cloudy
4:51 PM84.9 °F53.1 °F33 %29.80 in10.0 miSSW (200°)16.1 mph26.5 mphMostly Cloudy
5:51 PM84.0 °F53.1 °F34 %29.82 in10.0 miSouth (190°)17.3 mph29.9 mphMostly Cloudy
6:51 PM82.0 °F54.0 °F38 %29.84 in10.0 miSSW (200°)18.4 mph27.6 mphMostly Cloudy
7:51 PM80.1 °F55.9 °F43 %29.86 in10.0 miSouth (190°)15.0 mph23.0 mphMostly Cloudy
8:51 PM77.0 °F57.0 °F50 %29.89 in10.0 miSouth (180°)12.7 mph20.7 mphScattered Clouds
9:51 PM75.9 °F57.0 °F52 %29.91 in10.0 miSouth (180°)10.4 mph20.7 mphPartly Cloudy
10:51 PM73.9 °F57.0 °F55 %29.92 in10.0 miSouth (180°)12.7 mphClear
11:51 PM73.0 °F55.9 °F55 %29.93 in10.0 miSouth (190°)10.4 mphClear
Hourly data recorded from KMDW, located miles away from Bedford Park, Illinois







STORIES FROM OUR PARTNERS